Hourly Weather Abay (Tyulkubasskiy rayon)

Today, 24 October, Saturday

Time Temperature Precipitation Wind Pressure Humidity
00:00 +3°C° 0 mm 1 mps 713 mmHg 69%
01:00 +3°C° 0 mm 1 mps 713 mmHg 69%
02:00 +4°C° 0 mm 1 mps 713 mmHg 68%
03:00 +4°C° 0 mm 1 mps 713 mmHg 67%
04:00 +4°C° 0 mm 1 mps 713 mmHg 67%
05:00 +4°C° 0 mm 1 mps 713 mmHg 66%
06:00 +4°C° 0 mm 1 mps 713 mmHg 63%
07:00 +5°C° 0 mm 1 mps 713 mmHg 60%
08:00 +6°C° 0 mm 1 mps 714 mmHg 56%
09:00 +7°C° 0 mm 1 mps 714 mmHg 50%
10:00 +9°C° 0 mm 1 mps 714 mmHg 44%
11:00 +11°C° 0 mm 1 mps 714 mmHg 37%
12:00 +12°C° 0 mm 1 mps 714 mmHg 36%
13:00 +12°C° 0 mm 1 mps 713 mmHg 35%
14:00 +13°C° 0 mm 2 mps 713 mmHg 33%
15:00 +12°C° 0 mm 2 mps 713 mmHg 36%
16:00 +11°C° 0 mm 1 mps 713 mmHg 38%
17:00 +10°C° 0 mm 1 mps 713 mmHg 40%
18:00 +9°C° 0 mm 1 mps 713 mmHg 43%
19:00 +8°C° 0 mm 1 mps 713 mmHg 47%
20:00 +7°C° 0 mm 1 mps 713 mmHg 50%
21:00 +7°C° 0 mm 1 mps 713 mmHg 52%
22:00 +6°C° 0 mm 1 mps 713 mmHg 54%
23:00 +6°C° 0 mm 1 mps 713 mmHg 56%

Tomorrow, 25 October, Sunday

Time Temperature Precipitation Wind Pressure Humidity
00:00 +6°C° 0 mm 1 mps 713 mmHg 56%
01:00 +6°C° 0 mm 1 mps 713 mmHg 56%
02:00 +5°C° 0 mm 1 mps 713 mmHg 56%
03:00 +5°C° 0 mm 1 mps 713 mmHg 56%
04:00 +6°C° 0 mm 1 mps 713 mmHg 55%
05:00 +6°C° 0 mm 1 mps 713 mmHg 55%
06:00 +6°C° 0 mm 1 mps 713 mmHg 52%
07:00 +7°C° 0 mm 1 mps 714 mmHg 48%
08:00 +7°C° 0 mm 0 mps 714 mmHg 45%
09:00 +10°C° 0 mm 1 mps 714 mmHg 41%
10:00 +12°C° 0 mm 1 mps 714 mmHg 36%
11:00 +14°C° 0 mm 2 mps 714 mmHg 31%
12:00 +15°C° 0 mm 2 mps 714 mmHg 30%
13:00 +16°C° 0 mm 3 mps 714 mmHg 29%
14:00 +16°C° 0 mm 3 mps 714 mmHg 27%
15:00 +15°C° 0 mm 2 mps 714 mmHg 30%
16:00 +14°C° 0 mm 1 mps 713 mmHg 33%
17:00 +12°C° 0 mm 1 mps 713 mmHg 36%
18:00 +11°C° 0 mm 1 mps 713 mmHg 39%
19:00 +10°C° 0 mm 1 mps 713 mmHg 41%
20:00 +10°C° 0 mm 1 mps 713 mmHg 43%
21:00 +9°C° 0 mm 1 mps 712 mmHg 44%
22:00 +8°C° 0 mm 2 mps 712 mmHg 45%
23:00 +8°C° 0 mm 2 mps 712 mmHg 45%

Day after tomorrow, 26 October, Monday

Time Temperature Precipitation Wind Pressure Humidity
00:00 +8°C° 0 mm 2 mps 711 mmHg 44%
01:00 +9°C° 0 mm 1 mps 711 mmHg 43%
02:00 +9°C° 0 mm 1 mps 711 mmHg 42%
03:00 +9°C° 0 mm 1 mps 711 mmHg 42%
04:00 +9°C° 0 mm 1 mps 710 mmHg 41%
05:00 +9°C° 0 mm 1 mps 710 mmHg 41%
06:00 +10°C° 0 mm 1 mps 710 mmHg 38%
07:00 +10°C° 0 mm 1 mps 710 mmHg 36%
08:00 +11°C° 0 mm 1 mps 710 mmHg 33%
09:00 +14°C° 0 mm 2 mps 710 mmHg 29%
10:00 +16°C° 0 mm 2 mps 710 mmHg 25%
11:00 +18°C° 0 mm 3 mps 710 mmHg 21%
12:00 +18°C° 0 mm 3 mps 710 mmHg 21%
13:00 +19°C° 0 mm 4 mps 709 mmHg 21%
14:00 +19°C° 0 mm 4 mps 709 mmHg 20%
15:00 +18°C° 0 mm 3 mps 709 mmHg 23%
16:00 +17°C° 0 mm 3 mps 708 mmHg 25%
17:00 +15°C° 0 mm 2 mps 708 mmHg 27%
18:00 +14°C° 0 mm 2 mps 708 mmHg 30%
19:00 +13°C° 0 mm 2 mps 708 mmHg 32%
20:00 +12°C° 0 mm 2 mps 708 mmHg 34%
21:00 +12°C° 0 mm 2 mps 707 mmHg 34%
22:00 +12°C° 0 mm 2 mps 707 mmHg 33%
23:00 +12°C° 0 mm 2 mps 707 mmHg 32%

, 27 October, Tuesday

Time Temperature Precipitation Wind Pressure Humidity
00:00 +12°C° 0 mm 2 mps 707 mmHg 32%
01:00 +12°C° 0 mm 2 mps 707 mmHg 31%
02:00 +12°C° 0 mm 2 mps 706 mmHg 31%
03:00 +12°C° 0 mm 2 mps 706 mmHg 31%
04:00 +12°C° 0 mm 2 mps 706 mmHg 31%
05:00 +10°C° 0 mm 2 mps 705 mmHg 31%
06:00 +12°C° 0 mm 2 mps 705 mmHg 30%
07:00 +12°C° 0 mm 2 mps 705 mmHg 30%
08:00 +13°C° 0 mm 1 mps 705 mmHg 29%
09:00 +14°C° 0 mm 3 mps 705 mmHg 27%
10:00 +15°C° 0 mm 4 mps 705 mmHg 24%
11:00 +17°C° 0 mm 5 mps 705 mmHg 21%
12:00 +18°C° 0 mm 7 mps 705 mmHg 20%
13:00 +20°C° 0 mm 8 mps 704 mmHg 19%
14:00 +19°C° 0 mm 9 mps 704 mmHg 18%
15:00 +18°C° 0 mm 8 mps 704 mmHg 20%
16:00 +17°C° 0 mm 7 mps 704 mmHg 22%
17:00 +15°C° 0 mm 6 mps 704 mmHg 24%
18:00 +14°C° 0 mm 5 mps 705 mmHg 29%
19:00 +12°C° 0 mm 4 mps 705 mmHg 34%
20:00 +12°C° 0 mm 2 mps 705 mmHg 40%
21:00 +10°C° 0 mm 2 mps 705 mmHg 45%
22:00 +10°C° 0 mm 1 mps 706 mmHg 50%
23:00 +9°C° 0 mm 1 mps 706 mmHg 55%

27 October, Tuesday

Time Temperature Precipitation Wind Pressure Humidity
00:00 +12°C° 0 mm 2 mps 707 mmHg 32%
01:00 +12°C° 0 mm 2 mps 707 mmHg 31%
02:00 +12°C° 0 mm 2 mps 706 mmHg 31%
03:00 +12°C° 0 mm 2 mps 706 mmHg 31%
04:00 +12°C° 0 mm 2 mps 706 mmHg 31%
05:00 +10°C° 0 mm 2 mps 705 mmHg 31%
06:00 +12°C° 0 mm 2 mps 705 mmHg 30%
07:00 +12°C° 0 mm 2 mps 705 mmHg 30%
08:00 +13°C° 0 mm 1 mps 705 mmHg 29%
09:00 +14°C° 0 mm 3 mps 705 mmHg 27%
10:00 +15°C° 0 mm 4 mps 705 mmHg 24%
11:00 +17°C° 0 mm 5 mps 705 mmHg 21%
12:00 +18°C° 0 mm 7 mps 705 mmHg 20%
13:00 +20°C° 0 mm 8 mps 704 mmHg 19%
14:00 +19°C° 0 mm 9 mps 704 mmHg 18%
15:00 +18°C° 0 mm 8 mps 704 mmHg 20%
16:00 +17°C° 0 mm 7 mps 704 mmHg 22%
17:00 +15°C° 0 mm 6 mps 704 mmHg 24%
18:00 +14°C° 0 mm 5 mps 705 mmHg 29%
19:00 +12°C° 0 mm 4 mps 705 mmHg 34%
20:00 +12°C° 0 mm 2 mps 705 mmHg 40%
21:00 +10°C° 0 mm 2 mps 705 mmHg 45%
22:00 +10°C° 0 mm 1 mps 706 mmHg 50%
23:00 +9°C° 0 mm 1 mps 706 mmHg 55%

28 October, Wednesday

Time Temperature Precipitation Wind Pressure Humidity
00:00 +9°C° 0 mm 1 mps 706 mmHg 59%
01:00 +8°C° 0 mm 1 mps 706 mmHg 62%
02:00 +7°C° 0 mm 1 mps 706 mmHg 66%
03:00 +7°C° 0 mm 1 mps 706 mmHg 63%
04:00 +8°C° 0 mm 1 mps 707 mmHg 61%
05:00 +7°C° 0 mm 2 mps 707 mmHg 58%
06:00 +7°C° 0 mm 2 mps 707 mmHg 57%
07:00 +6°C° 0 mm 2 mps 708 mmHg 55%
08:00 +5°C° 0 mm 3 mps 708 mmHg 53%
09:00 +6°C° 0 mm 4 mps 709 mmHg 49%
10:00 +6°C° 0 mm 5 mps 709 mmHg 44%
11:00 +7°C° 0 mm 6 mps 709 mmHg 39%
12:00 +7°C° 0 mm 6 mps 709 mmHg 35%
13:00 +8°C° 0 mm 6 mps 710 mmHg 31%
14:00 +8°C° 0 mm 7 mps 710 mmHg 26%
15:00 +7°C° 0 mm 6 mps 710 mmHg 28%
16:00 +6°C° 0 mm 5 mps 710 mmHg 30%
17:00 +5°C° 0 mm 4 mps 710 mmHg 32%
18:00 +3°C° 0 mm 3 mps 711 mmHg 37%
19:00 +3°C° 0 mm 2 mps 711 mmHg 41%
20:00 +2°C° 0 mm 2 mps 712 mmHg 46%
21:00 +2°C° 0 mm 1 mps 712 mmHg 48%
22:00 +2°C° 0 mm 1 mps 712 mmHg 50%
23:00 +1°C° 0 mm 1 mps 712 mmHg 52%

29 October, Thursday

Time Temperature Precipitation Wind Pressure Humidity
00:00 +1°C° 0 mm 1 mps 712 mmHg 54%
01:00 +1°C° 0 mm 1 mps 712 mmHg 56%
02:00 0°C° 0 mm 1 mps 712 mmHg 58%
03:00 0°C° 0 mm 1 mps 712 mmHg 59%
04:00 0°C° 0 mm 1 mps 712 mmHg 61%
05:00 0°C° 0 mm 1 mps 712 mmHg 63%
06:00 0°C° 0 mm 1 mps 713 mmHg 61%
07:00 +1°C° 0 mm 1 mps 714 mmHg 59%
08:00 +1°C° 0 mm 1 mps 714 mmHg 57%
09:00 +3°C° 0 mm 1 mps 714 mmHg 54%
10:00 +3°C° 0 mm 2 mps 714 mmHg 51%
11:00 +4°C° 0 mm 3 mps 715 mmHg 48%
12:00 +4°C° 0 mm 3 mps 715 mmHg 44%
13:00 +5°C° 0 mm 3 mps 715 mmHg 40%
14:00 +5°C° 0 mm 3 mps 715 mmHg 37%
15:00 +4°C° 0 mm 3 mps 715 mmHg 40%
16:00 +4°C° 0 mm 2 mps 715 mmHg 43%
17:00 +4°C° 0 mm 1 mps 716 mmHg 46%
18:00 +1°C° 0 mm 2 mps 716 mmHg 52%
19:00 -1°C° 0 mm 2 mps 716 mmHg 59%
20:00 -2°C° 0 mm 3 mps 717 mmHg 65%
21:00 -4°C° 0 mm 3 mps 717 mmHg 66%
22:00 -4°C° 0 mm 3 mps 717 mmHg 67%
23:00 -5°C° 0 mm 3 mps 717 mmHg 67%
Show more